TimeEDT,TemperatureF,Dew PointF,Humidity,Sea Level PressureIn,VisibilityMPH,Wind Direction,Wind SpeedMPH,Gust SpeedMPH,PrecipitationIn,Events,Conditions,WindDirDegrees,DateUTC
12:53 AM,72.0,62.1,71,30.04,10.0,North,6.9,-,N/A,,Mostly Cloudy,360,2014-04-21 04:53:00
1:53 AM,72.0,63.0,73,30.01,10.0,North,8.1,-,N/A,,Mostly Cloudy,360,2014-04-21 05:53:00
2:53 AM,73.0,64.0,73,30.00,10.0,North,4.6,-,N/A,,Scattered Clouds,360,2014-04-21 06:53:00
3:53 AM,73.0,-9999,N/A,29.99,10.0,NNW,8.1,-,N/A,,Mostly Cloudy,340,2014-04-21 07:53:00
4:06 AM,73.0,64.0,73,29.99,10.0,North,9.2,-,0.00,Rain,Light Rain,10,2014-04-21 08:06:00
4:28 AM,73.0,-9999,N/A,29.99,10.0,NE,9.2,-,0.00,,Overcast,40,2014-04-21 08:28:00
4:53 AM,72.0,64.0,76,29.99,10.0,NNE,9.2,-,0.00,,Scattered Clouds,30,2014-04-21 08:53:00
5:53 AM,71.1,63.0,75,30.00,10.0,NE,8.1,-,N/A,,Clear,40,2014-04-21 09:53:00
6:05 AM,71.1,63.0,75,30.00,10.0,NE,6.9,-,N/A,,Scattered Clouds,40,2014-04-21 10:05:00
6:53 AM,71.1,63.0,75,30.01,10.0,NE,8.1,-,N/A,,Scattered Clouds,40,2014-04-21 10:53:00
7:53 AM,72.0,64.0,76,30.03,10.0,NNE,9.2,-,N/A,,Scattered Clouds,30,2014-04-21 11:53:00
8:53 AM,73.0,63.0,71,30.03,10.0,NNE,11.5,-,N/A,,Scattered Clouds,30,2014-04-21 12:53:00
9:53 AM,73.9,63.0,68,30.04,10.0,NNE,13.8,-,N/A,,Scattered Clouds,20,2014-04-21 13:53:00
10:53 AM,75.9,64.9,69,30.04,10.0,North,13.8,-,N/A,,Scattered Clouds,360,2014-04-21 14:53:00
11:53 AM,75.9,64.0,67,30.04,10.0,North,15.0,-,N/A,,Scattered Clouds,10,2014-04-21 15:53:00
12:53 PM,77.0,64.0,64,30.02,10.0,North,12.7,-,N/A,,Scattered Clouds,360,2014-04-21 16:53:00
1:53 PM,77.0,63.0,62,30.01,10.0,North,12.7,-,N/A,,Scattered Clouds,350,2014-04-21 17:53:00
2:53 PM,75.9,63.0,64,30.00,10.0,NNW,12.7,-,N/A,,Mostly Cloudy,340,2014-04-21 18:53:00
3:53 PM,75.0,63.0,66,29.99,10.0,North,11.5,-,N/A,,Mostly Cloudy,350,2014-04-21 19:53:00
4:53 PM,75.9,64.0,67,29.97,10.0,North,12.7,-,N/A,,Mostly Cloudy,350,2014-04-21 20:53:00
5:53 PM,73.9,62.1,66,29.96,10.0,NNW,13.8,-,N/A,,Mostly Cloudy,330,2014-04-21 21:53:00
6:53 PM,73.0,63.0,71,29.95,10.0,NNW,13.8,-,N/A,,Mostly Cloudy,330,2014-04-21 22:53:00
7:53 PM,72.0,63.0,73,29.96,10.0,NW,13.8,-,N/A,,Mostly Cloudy,320,2014-04-21 23:53:00
8:53 PM,71.1,64.0,78,29.97,10.0,NNW,12.7,-,N/A,,Scattered Clouds,330,2014-04-22 00:53:00
9:53 PM,71.1,63.0,75,29.98,10.0,NW,12.7,-,N/A,,Scattered Clouds,310,2014-04-22 01:53:00
10:53 PM,71.1,64.9,81,29.98,10.0,NNW,11.5,-,N/A,,Clear,330,2014-04-22 02:53:00
11:53 PM,72.0,66.0,81,29.99,10.0,NNW,10.4,-,N/A,,Mostly Cloudy,330,2014-04-22 03:53:00